Change the Weather History Date:

Sunday, January 26, 2014

  Actual Average Record
Temperature  
Mean Temperature 16 °F -  
Max Temperature 31 °F 36 °F 68 °F (1950)
Min Temperature 3 °F 17 °F -15 °F (1948)
Degree Days  
Heating Degree Days 48    
Moisture  
Dew Point 6 °F    
Average Humidity 76    
Maximum Humidity 85    
Minimum Humidity 64    
Precipitation  
Precipitation 0.00 in - - ()
Sea Level Pressure  
Sea Level Pressure 29.72 in    
Wind  
Wind Speed 7 mph (SSW)    
Max Wind Speed 9 mph    
Max Gust Speed 17 mph    
Visibility 6 miles    
Events Snow    
Averages and records for this station are not official NWS values.
T = Trace of Precipitation, MM = Missing Value Source: NWS Daily Summary

Daily Weather History Graph

Daily Weather History Graph

Search for Another Location

Airport or City:

Trip Planner

Search our weather history database for the weather conditions in past years. The results will help you decide how hot, cold, wet, or windy it might be!

Date:

Astronomy

Jan. 26, 2014 Rise Set
Actual Time 7:37 AM EST 5:31 PM EST
Civil Twilight 7:08 AM EST 6:00 PM EST
Nautical Twilight 6:34 AM EST 6:34 PM EST
Astronomical Twilight 6:02 AM EST 7:06 PM EST
Moon 3:13 AM EST (1/26) 1:19 PM EST (1/26)
Length of Visible Light 10h 52m
Length of Day
9h 53m
Waning Crescent, 24% of the Moon is Illuminated
Jan 26
Waning Crescent
Jan 30
New
Feb 6
First Quarter
Feb 14
Full
Feb 22
Last Quarter

Hourly Weather History & Observations

Time (EST) Temp. Windchill Dew Point Humidity Pressure Visibility Wind Dir Wind Speed Gust Speed Precip Events Conditions
12:56 AM 9.1 °F -4.0 °F -0.9 °F 64% 29.85 in 10.0 mi WSW 9.2 mph 17.3 mph 0.00 in   Clear
1:56 AM 7.2 °F -5.4 °F 1.0 °F 76% 29.87 in 10.0 mi SW 8.1 mph - N/A   Clear
2:44 AM 6.8 °F -4.8 °F 1.4 °F 79% 29.78 in 6.0 mi WSW 6.9 mph - 0.00 in Snow Light Snow
2:56 AM 6.1 °F -2.8 °F 2.1 °F 84% 29.89 in 6.0 mi SW 4.6 mph - 0.00 in Snow Light Snow
3:56 AM 4.1 °F -3.2 °F 0.1 °F 84% 29.90 in 10.0 mi WSW 3.5 mph - 0.00 in   Scattered Clouds
4:32 AM 5.0 °F -8.1 °F 1.4 °F 85% 29.80 in 4.0 mi SSW 8.1 mph - 0.00 in Snow Light Snow
4:56 AM 5.0 °F -5.6 °F 0.1 °F 80% 29.91 in 10.0 mi SSW 5.8 mph - 0.00 in   Partly Cloudy
5:56 AM 3.0 °F -9.3 °F -0.9 °F 84% 29.89 in 10.0 mi SSW 6.9 mph - N/A   Clear
6:56 AM 3.0 °F -8.0 °F -1.8 °F 80% 29.91 in 10.0 mi SSW 5.8 mph - N/A   Clear
7:56 AM 4.1 °F -8.0 °F -1.8 °F 76% 29.88 in 10.0 mi South 6.9 mph - N/A   Clear
8:56 AM 6.1 °F -2.8 °F -1.8 °F 70% 29.87 in 10.0 mi SSW 4.6 mph - N/A   Clear
9:56 AM 8.1 °F 1.4 °F -0.9 °F 67% 29.86 in 10.0 mi Variable 3.5 mph - N/A   Partly Cloudy
10:07 AM 8.6 °F 2.0 °F -0.4 °F 67% 29.75 in 1.8 mi Variable 3.5 mph - 0.00 in Snow Light Snow
10:11 AM 8.6 °F 0.1 °F -0.4 °F 67% 29.75 in 1.0 mi Variable 4.6 mph - 0.00 in Snow Light Snow
10:14 AM 6.8 °F -2.0 °F 1.4 °F 79% 29.75 in 1.0 mi South 4.6 mph - 0.00 in Snow Light Snow
10:20 AM 8.6 °F 0.1 °F 1.4 °F 73% 29.74 in 0.8 mi Variable 4.6 mph - 0.00 in Snow Light Snow
10:31 AM 8.6 °F 0.1 °F 1.4 °F 73% 29.74 in 1.0 mi Variable 4.6 mph - 0.00 in Snow Light Snow
10:49 AM 8.6 °F 0.1 °F 3.2 °F 79% 29.72 in 0.8 mi South 4.6 mph - 0.00 in Snow Light Snow
10:56 AM 8.1 °F -3.2 °F 3.0 °F 80% 29.83 in 0.8 mi Variable 6.9 mph - 0.00 in Snow Light Snow
11:32 AM 8.6 °F -2.6 °F 3.2 °F 79% 29.70 in 1.0 mi Variable 6.9 mph - 0.00 in Snow Light Snow
11:38 AM 8.6 °F -1.3 °F 3.2 °F 79% 29.70 in 1.2 mi Variable 5.8 mph - 0.00 in Snow Light Snow
11:43 AM 8.6 °F -1.3 °F 5.0 °F 85% 29.70 in 1.0 mi South 5.8 mph - 0.00 in Snow Light Snow
11:49 AM 10.4 °F -0.4 °F 5.0 °F 79% 29.70 in 0.8 mi South 6.9 mph - 0.00 in Snow Light Snow
11:56 AM 10.0 °F -0.9 °F 5.0 °F 80% 29.80 in 0.5 mi South 6.9 mph - 0.00 in Snow Snow
12:19 PM 10.4 °F 0.8 °F 6.8 °F 85% 29.68 in 1.0 mi Variable 5.8 mph - 0.00 in Snow Light Snow
12:22 PM 10.4 °F -0.4 °F 6.8 °F 85% 29.67 in 1.2 mi South 6.9 mph - 0.00 in Snow Light Snow
12:29 PM 10.4 °F -0.4 °F 6.8 °F 85% 29.67 in 2.0 mi Variable 6.9 mph - 0.00 in Snow Light Snow
12:56 PM 12.2 °F 2.9 °F 6.8 °F 79% 29.65 in 1.2 mi Variable 5.8 mph - N/A Snow Light Snow
1:25 PM 12.2 °F 0.7 °F 8.6 °F 85% 29.63 in 1.8 mi South 8.1 mph - 0.00 in Snow Light Snow
1:32 PM 12.2 °F 0.7 °F 8.6 °F 85% 29.62 in 2.5 mi South 8.1 mph - 0.00 in Snow Light Snow
1:41 PM 12.2 °F -0.2 °F 8.6 °F 85% 29.61 in 3.0 mi South 9.2 mph - 0.00 in Snow Light Snow
1:56 PM 14.0 °F 2.9 °F 8.1 °F 77% 29.72 in 3.0 mi South 8.1 mph - 0.00 in Snow Light Snow
1:59 PM 14.0 °F 5.1 °F 8.6 °F 79% 29.61 in 2.5 mi SSE 5.8 mph - 0.00 in Snow Light Snow
2:16 PM 14.0 °F 5.1 °F 8.6 °F 79% 29.59 in 3.0 mi Variable 5.8 mph - 0.00 in Snow Light Snow
2:28 PM 14.0 °F 2.9 °F 8.6 °F 79% 29.58 in 4.0 mi South 8.1 mph - 0.00 in Snow Light Snow
2:56 PM 15.1 °F 6.4 °F 9.1 °F 77% 29.70 in 10.0 mi Variable 5.8 mph - 0.00 in   Mostly Cloudy
3:56 PM 17.1 °F 8.7 °F 10.0 °F 74% 29.68 in 10.0 mi Variable 5.8 mph - N/A   Overcast
4:56 PM 18.1 °F 10.0 °F 11.1 °F 74% 29.66 in 10.0 mi Variable 5.8 mph - N/A   Overcast
5:12 PM 19.4 °F 9.5 °F 10.4 °F 68% 29.55 in 10.0 mi South 8.1 mph - N/A   Overcast
5:27 PM 19.4 °F 11.5 °F 10.4 °F 68% 29.55 in 10.0 mi Variable 5.8 mph - N/A   Overcast
5:56 PM 20.1 °F 12.3 °F 11.1 °F 68% 29.66 in 10.0 mi Variable 5.8 mph - N/A   Overcast
6:56 PM 21.2 °F 11.7 °F 12.2 °F 68% 29.56 in 10.0 mi South 8.1 mph 17.3 mph N/A   Mostly Cloudy
7:56 PM 24.1 °F 15.2 °F 14.0 °F 65% 29.68 in 10.0 mi South 8.1 mph - N/A   Overcast
8:56 PM 26.1 °F 21.9 °F 16.2 °F 66% 29.68 in 10.0 mi Variable 3.5 mph - N/A   Overcast
9:56 PM 27.1 °F 19.7 °F 17.1 °F 66% 29.65 in 10.0 mi SSW 6.9 mph - N/A   Partly Cloudy
10:56 PM 30.0 °F 23.2 °F 22.1 °F 72% 29.62 in 10.0 mi South 6.9 mph - N/A   Clear
11:56 PM 31.1 °F 27.7 °F 22.1 °F 69% 29.58 in 10.0 mi South 3.5 mph - N/A   Scattered Clouds